JST1824 YSSY-YBAS

Flight info

Callsign JST1824
Flight time 2h 25m
Altitude 36000
Route KADOM A576 AS
Aircraft A320/M-SDE3FGHIRWY/LB1

Departure

Time 2026-04-30 09:49
Airport Sydney Kingsford Smith International Airport (YSSY)

Arrival

Time 2026-04-30 12:14
Airport Alice Springs Airport (YBAS)
Time Latitude Longitude Altitude Speed Heading
2026-04-30 09:05 -33.93701 151.17983 29 ft 0 kts 335°
2026-04-30 09:23 -33.93706 151.17986 31 ft 3 kts 335°
2026-04-30 09:23 -33.93725 151.17997 30 ft 3 kts 335°
2026-04-30 09:23 -33.93743 151.18007 30 ft 3 kts 334°
2026-04-30 09:23 -33.93760 151.18020 30 ft 3 kts 315°
2026-04-30 09:24 -33.93771 151.18040 31 ft 3 kts 279°
2026-04-30 09:24 -33.93772 151.18064 30 ft 3 kts 260°
2026-04-30 09:24 -33.93768 151.18085 30 ft 0 kts 255°
2026-04-30 09:30 -33.93769 151.18080 29 ft 3 kts 255°
2026-04-30 09:30 -33.93782 151.18022 30 ft 11 kts 254°
2026-04-30 09:30 -33.93815 151.17888 29 ft 22 kts 255°
2026-04-30 09:30 -33.93890 151.17775 21 ft 18 kts 177°
2026-04-30 09:31 -33.94014 151.17810 23 ft 19 kts 168°
2026-04-30 09:31 -33.94150 151.17844 24 ft 21 kts 167°
2026-04-30 09:31 -33.94297 151.17882 24 ft 23 kts 168°
2026-04-30 09:31 -33.94459 151.17906 26 ft 22 kts 195°
2026-04-30 09:32 -33.94608 151.17905 26 ft 21 kts 168°
2026-04-30 09:32 -33.94764 151.17946 21 ft 25 kts 168°
2026-04-30 09:32 -33.94940 151.17991 22 ft 26 kts 167°
2026-04-30 09:32 -33.95100 151.18033 26 ft 22 kts 168°
2026-04-30 09:33 -33.95199 151.17990 25 ft 17 kts 251°
2026-04-30 09:33 -33.95217 151.17888 24 ft 0 kts 256°
2026-04-30 09:35 -33.95224 151.17855 25 ft 8 kts 256°
2026-04-30 09:36 -33.95240 151.17763 23 ft 15 kts 259°
2026-04-30 09:36 -33.95269 151.17622 21 ft 17 kts 238°
2026-04-30 09:36 -33.95386 151.17590 20 ft 20 kts 167°
2026-04-30 09:36 -33.95533 151.17629 21 ft 24 kts 167°
2026-04-30 09:37 -33.95701 151.17673 27 ft 25 kts 167°
2026-04-30 09:37 -33.95817 151.17703 23 ft 27 kts 168°
2026-04-30 09:39 -33.96441 151.17927 24 ft 0 kts 90°
2026-04-30 09:46 -33.96441 151.17928 24 ft 1 kts 90°
2026-04-30 09:46 -33.96435 151.17966 24 ft 8 kts 75°
2026-04-30 09:46 -33.96400 151.18045 24 ft 14 kts 22°
2026-04-30 09:46 -33.96326 151.18039 26 ft 0 kts 347°
2026-04-30 09:47 -33.96318 151.18037 24 ft 7 kts 347°
2026-04-30 09:48 -33.96025 151.17963 19 ft 78 kts 348°
2026-04-30 09:48 -33.95308 151.17775 26 ft 130 kts 347°
2026-04-30 09:48 -33.94277 151.17516 32 ft 171 kts 349°
2026-04-30 09:48 -33.93103 151.17237 591 ft 168 kts 351°
2026-04-30 09:49 -33.91988 151.16892 1190 ft 169 kts 342°
2026-04-30 09:49 -33.90910 151.16187 1533 ft 189 kts 326°
2026-04-30 09:49 -33.89908 151.14999 1829 ft 216 kts 308°
2026-04-30 09:49 -33.89135 151.13316 2209 ft 243 kts 298°
2026-04-30 09:50 -33.88367 151.11400 2745 ft 262 kts 298°
2026-04-30 09:50 -33.87564 151.09407 3608 ft 267 kts 298°
2026-04-30 09:50 -33.86750 151.07384 4482 ft 272 kts 297°
2026-04-30 09:50 -33.85915 151.05309 4867 ft 276 kts 297°
2026-04-30 09:51 -33.85076 151.03229 4989 ft 275 kts 297°
2026-04-30 09:51 -33.84288 151.01134 5010 ft 275 kts 288°
2026-04-30 09:51 -33.83805 150.98877 5554 ft 279 kts 283°
2026-04-30 09:51 -33.83394 150.96624 6501 ft 280 kts 282°
2026-04-30 09:52 -33.82991 150.94322 7346 ft 283 kts 282°
2026-04-30 09:52 -33.82585 150.91986 8148 ft 287 kts 283°
2026-04-30 09:52 -33.82170 150.89628 8943 ft 291 kts 283°
2026-04-30 09:52 -33.81743 150.87239 9732 ft 294 kts 283°
2026-04-30 09:53 -33.81306 150.84813 10489 ft 298 kts 284°
2026-04-30 09:53 -33.80850 150.82308 10852 ft 317 kts 284°
2026-04-30 09:53 -33.80355 150.79624 11003 ft 340 kts 284°
2026-04-30 09:53 -33.79823 150.76757 11126 ft 363 kts 284°
2026-04-30 09:54 -33.79259 150.73717 11340 ft 380 kts 283°
2026-04-30 09:54 -33.78685 150.70624 11861 ft 386 kts 283°
2026-04-30 09:54 -33.78097 150.67456 12484 ft 390 kts 283°
2026-04-30 09:54 -33.77509 150.64267 13127 ft 392 kts 283°
2026-04-30 09:55 -33.76916 150.61060 13764 ft 395 kts 283°
2026-04-30 09:55 -33.76314 150.57820 14396 ft 398 kts 283°
2026-04-30 09:55 -33.75704 150.54567 14951 ft 401 kts 283°
2026-04-30 09:55 -33.75090 150.51292 15496 ft 404 kts 283°
2026-04-30 09:56 -33.74468 150.47985 16033 ft 408 kts 283°
2026-04-30 09:56 -33.73839 150.44651 16571 ft 411 kts 283°
2026-04-30 09:56 -33.73204 150.41274 17098 ft 416 kts 283°
2026-04-30 09:56 -33.72561 150.37869 17627 ft 420 kts 283°
2026-04-30 09:57 -33.71913 150.34432 18131 ft 425 kts 283°
2026-04-30 09:57 -33.71259 150.30965 18672 ft 428 kts 283°
2026-04-30 09:57 -33.70413 150.27528 19147 ft 431 kts 288°
2026-04-30 09:57 -33.69477 150.24092 19586 ft 434 kts 288°
2026-04-30 09:58 -33.68537 150.20630 20069 ft 437 kts 288°
2026-04-30 09:58 -33.67591 150.17147 20495 ft 441 kts 288°
2026-04-30 09:58 -33.66639 150.13640 20943 ft 443 kts 288°
2026-04-30 09:58 -33.65695 150.10163 21369 ft 445 kts 288°
2026-04-30 09:59 -33.63757 150.03055 22181 ft 450 kts 288°
2026-04-30 09:59 -33.61794 149.95898 22961 ft 453 kts 288°
2026-04-30 10:00 -33.59818 149.88678 23670 ft 458 kts 288°
2026-04-30 10:00 -33.58821 149.85049 24017 ft 459 kts 288°
2026-04-30 10:01 -33.56802 149.77746 24592 ft 464 kts 288°
2026-04-30 10:01 -33.55785 149.74061 24869 ft 465 kts 288°
2026-04-30 10:01 -33.54766 149.70371 25143 ft 468 kts 288°
2026-04-30 10:02 -33.52721 149.62967 25906 ft 466 kts 288°
2026-04-30 10:02 -33.51700 149.59285 26282 ft 466 kts 288°
2026-04-30 10:02 -33.50675 149.55609 26738 ft 463 kts 288°
2026-04-30 10:02 -33.49667 149.52005 27195 ft 462 kts 288°
2026-04-30 10:03 -33.48635 149.48309 27645 ft 460 kts 288°
2026-04-30 10:03 -33.47637 149.44729 28096 ft 459 kts 288°
2026-04-30 10:03 -33.46627 149.41112 28537 ft 458 kts 288°
2026-04-30 10:03 -33.45614 149.37492 29004 ft 457 kts 287°
2026-04-30 10:04 -33.44602 149.33877 29434 ft 457 kts 287°
2026-04-30 10:04 -33.43590 149.30267 29885 ft 456 kts 287°
2026-04-30 10:04 -33.42578 149.26671 30355 ft 455 kts 287°
2026-04-30 10:04 -33.41568 149.23087 30765 ft 454 kts 287°
2026-04-30 10:05 -33.40562 149.19516 31177 ft 452 kts 288°
2026-04-30 10:05 -33.39561 149.15958 31600 ft 450 kts 288°
2026-04-30 10:05 -33.38559 149.12400 32024 ft 449 kts 287°
2026-04-30 10:05 -33.37564 149.08875 32451 ft 447 kts 287°
2026-04-30 10:06 -33.36570 149.05361 32887 ft 445 kts 287°
2026-04-30 10:06 -33.35581 149.01863 33344 ft 442 kts 287°
2026-04-30 10:06 -33.34593 148.98388 33807 ft 440 kts 287°
2026-04-30 10:06 -33.33942 148.96095 34116 ft 439 kts 287°
2026-04-30 10:07 -33.32643 148.91529 34645 ft 436 kts 287°
2026-04-30 10:07 -33.31985 148.89214 34932 ft 434 kts 287°
2026-04-30 10:07 -33.31015 148.85808 35307 ft 432 kts 287°
2026-04-30 10:07 -33.30046 148.82410 35662 ft 430 kts 287°
2026-04-30 10:08 -33.29094 148.79076 35951 ft 430 kts 287°
2026-04-30 10:08 -33.28128 148.75693 36257 ft 429 kts 287°
2026-04-30 10:08 -33.27163 148.72318 36376 ft 430 kts 287°
2026-04-30 10:09 -33.25200 148.65462 36389 ft 441 kts 287°
2026-04-30 10:09 -33.23196 148.58491 36383 ft 444 kts 288°
2026-04-30 10:10 -33.21184 148.51521 36381 ft 444 kts 288°
2026-04-30 10:10 -33.19170 148.44548 36377 ft 444 kts 288°
2026-04-30 10:11 -33.17156 148.37588 36379 ft 443 kts 288°
2026-04-30 10:11 -33.15138 148.30633 36375 ft 443 kts 288°
2026-04-30 10:12 -33.12982 148.23733 36374 ft 445 kts 295°
2026-04-30 10:12 -33.09746 148.17428 36385 ft 447 kts 301°
2026-04-30 10:13 -33.06360 148.11214 36381 ft 447 kts 301°
2026-04-30 10:13 -33.02968 148.05000 36382 ft 447 kts 301°
2026-04-30 10:14 -32.99605 147.98826 36379 ft 447 kts 301°
2026-04-30 10:14 -32.94549 147.89508 36371 ft 446 kts 301°
2026-04-30 10:15 -32.91162 147.83306 36375 ft 446 kts 301°
2026-04-30 10:15 -32.87777 147.77112 36379 ft 446 kts 301°
2026-04-30 10:16 -32.84393 147.70934 36376 ft 446 kts 301°
2026-04-30 10:17 -32.79312 147.61679 36383 ft 445 kts 302°
2026-04-30 10:17 -32.74243 147.52467 36376 ft 443 kts 302°
2026-04-30 10:18 -32.70862 147.46351 36380 ft 443 kts 302°
2026-04-30 10:19 -32.65791 147.37178 36371 ft 442 kts 302°
2026-04-30 10:19 -32.62444 147.31117 36370 ft 442 kts 302°
2026-04-30 10:20 -32.59067 147.25024 36371 ft 442 kts 302°
2026-04-30 10:20 -32.53989 147.15910 36366 ft 442 kts 302°
2026-04-30 10:21 -32.50605 147.09831 36368 ft 441 kts 302°
2026-04-30 10:21 -32.47228 147.03770 36379 ft 441 kts 302°
2026-04-30 10:22 -32.43847 146.97718 36375 ft 440 kts 302°
2026-04-30 10:22 -32.40463 146.91682 36376 ft 440 kts 302°
2026-04-30 10:23 -32.37091 146.85654 36372 ft 440 kts 302°
2026-04-30 10:23 -32.30603 146.74109 36373 ft 440 kts 303°
2026-04-30 10:24 -32.16971 146.49964 36355 ft 440 kts 303°
2026-04-30 10:24 -32.03327 146.25925 36369 ft 441 kts 303°
2026-04-30 10:25 -31.89690 146.02068 36362 ft 440 kts 303°
2026-04-30 10:25 -31.76041 145.78322 36341 ft 439 kts 303°
2026-04-30 10:26 -31.62220 145.54452 36335 ft 440 kts 303°
2026-04-30 10:26 -31.48507 145.30905 36340 ft 440 kts 303°
2026-04-30 10:27 -31.34639 145.07244 36337 ft 440 kts 303°
2026-04-30 10:27 -31.20759 144.83678 36318 ft 439 kts 303°
2026-04-30 10:28 -31.06828 144.60200 36308 ft 440 kts 304°
2026-04-30 10:28 -30.92907 144.36832 36315 ft 440 kts 304°
2026-04-30 10:29 -30.78811 144.13382 36310 ft 439 kts 303°
2026-04-30 10:29 -30.64840 143.90214 36297 ft 438 kts 304°
2026-04-30 10:30 -30.59110 143.80757 36284 ft 437 kts 303°
2026-04-30 10:30 -30.55604 143.74972 36298 ft 437 kts 303°
2026-04-30 10:31 -30.52112 143.69242 36292 ft 437 kts 303°
2026-04-30 10:31 -30.48607 143.63488 36294 ft 437 kts 303°
2026-04-30 10:32 -30.45097 143.57735 36292 ft 437 kts 303°
2026-04-30 10:32 -30.41589 143.51978 36293 ft 437 kts 303°
2026-04-30 10:33 -30.38072 143.46230 36293 ft 437 kts 302°
2026-04-30 10:33 -30.34550 143.40494 36295 ft 437 kts 302°
2026-04-30 10:34 -30.31030 143.34747 36293 ft 437 kts 302°
2026-04-30 10:34 -30.27518 143.29015 36293 ft 437 kts 302°
2026-04-30 10:35 -30.23993 143.23278 36282 ft 437 kts 302°
2026-04-30 10:35 -30.20470 143.17566 36289 ft 437 kts 302°
2026-04-30 10:36 -30.16950 143.11875 36287 ft 436 kts 302°
2026-04-30 10:36 -30.13444 143.06205 36286 ft 436 kts 302°
2026-04-30 10:37 -30.09920 143.00512 36277 ft 436 kts 302°
2026-04-30 10:37 -30.06393 142.94823 36272 ft 436 kts 302°
2026-04-30 10:38 -30.02867 142.89134 36274 ft 435 kts 302°
2026-04-30 10:38 -29.99340 142.83456 36273 ft 435 kts 302°
2026-04-30 10:39 -29.95799 142.77784 36268 ft 435 kts 302°
2026-04-30 10:39 -29.92261 142.72120 36251 ft 435 kts 302°
2026-04-30 10:40 -29.88722 142.66452 36254 ft 435 kts 302°
2026-04-30 10:40 -29.85177 142.60783 36254 ft 436 kts 302°
2026-04-30 10:41 -29.81659 142.55157 36253 ft 436 kts 302°
2026-04-30 10:41 -29.78087 142.49459 36254 ft 436 kts 302°
2026-04-30 10:42 -29.74554 142.43837 36258 ft 436 kts 302°
2026-04-30 10:42 -29.70997 142.38182 36260 ft 436 kts 302°
2026-04-30 10:43 -29.67437 142.32533 36246 ft 436 kts 302°
2026-04-30 10:43 -29.63877 142.26892 36251 ft 435 kts 302°
2026-04-30 10:44 -29.60317 142.21261 36250 ft 435 kts 302°
2026-04-30 10:44 -29.56756 142.15636 36253 ft 435 kts 302°
2026-04-30 10:45 -29.53203 142.10014 36256 ft 435 kts 302°
2026-04-30 10:45 -29.49644 142.04393 36245 ft 435 kts 302°
2026-04-30 10:46 -29.46063 141.98775 36252 ft 435 kts 302°
2026-04-30 10:46 -29.42487 141.93161 36259 ft 436 kts 302°
2026-04-30 10:47 -29.38911 141.87547 36255 ft 436 kts 302°
2026-04-30 10:47 -29.35337 141.81929 36257 ft 436 kts 302°
2026-04-30 10:48 -29.31782 141.76357 36253 ft 436 kts 302°
2026-04-30 10:48 -29.28195 141.70756 36250 ft 436 kts 302°
2026-04-30 10:49 -29.24603 141.65156 36253 ft 436 kts 302°
2026-04-30 10:49 -29.21009 141.59559 36252 ft 436 kts 302°
2026-04-30 10:50 -29.17419 141.53957 36241 ft 436 kts 302°
2026-04-30 10:50 -29.13825 141.48362 36237 ft 436 kts 302°
2026-04-30 10:51 -29.10227 141.42777 36240 ft 436 kts 303°
2026-04-30 10:51 -29.07231 141.38131 36241 ft 436 kts 303°
2026-04-30 10:52 -29.03632 141.32555 36222 ft 436 kts 302°
2026-04-30 10:52 -28.99480 141.26120 36232 ft 436 kts 302°
2026-04-30 10:53 -28.95871 141.20549 36238 ft 436 kts 303°
2026-04-30 10:53 -28.92258 141.14984 36232 ft 436 kts 303°
2026-04-30 10:54 -28.89249 141.10352 36230 ft 436 kts 303°
2026-04-30 10:54 -28.85646 141.04797 36227 ft 436 kts 302°
2026-04-30 10:55 -28.82037 140.99239 36232 ft 435 kts 303°
2026-04-30 10:55 -28.80232 140.96471 36234 ft 435 kts 303°
2026-04-30 10:56 -28.71050 140.82408 36216 ft 435 kts 302°
2026-04-30 10:57 -28.67449 140.76899 36228 ft 434 kts 303°
2026-04-30 10:57 -28.63875 140.71442 36226 ft 434 kts 303°
2026-04-30 10:58 -28.60327 140.66039 36224 ft 434 kts 303°
2026-04-30 10:58 -28.56797 140.60656 36217 ft 433 kts 303°
2026-04-30 10:59 -28.53200 140.55186 36216 ft 433 kts 303°
2026-04-30 10:59 -28.49611 140.49742 36209 ft 433 kts 303°
2026-04-30 11:00 -28.46013 140.44281 36215 ft 433 kts 303°
2026-04-30 11:00 -28.42446 140.38874 36208 ft 433 kts 303°
2026-04-30 11:01 -28.38847 140.33426 36210 ft 433 kts 303°
2026-04-30 11:01 -28.35216 140.27948 36209 ft 432 kts 303°
2026-04-30 11:02 -28.31613 140.22519 36205 ft 432 kts 303°
2026-04-30 11:02 -28.28051 140.17138 36200 ft 432 kts 302°
2026-04-30 11:03 -28.24446 140.11705 36201 ft 432 kts 303°
2026-04-30 11:04 -28.19043 140.03592 36196 ft 432 kts 303°
2026-04-30 11:04 -28.15548 139.98346 36199 ft 431 kts 302°
2026-04-30 11:05 -28.11938 139.92922 36198 ft 431 kts 302°
2026-04-30 11:05 -28.08323 139.87512 36201 ft 431 kts 302°
2026-04-30 11:06 -28.04714 139.82118 36199 ft 430 kts 302°
2026-04-30 11:06 -28.01087 139.76705 36198 ft 430 kts 302°
2026-04-30 11:07 -27.97463 139.71289 36199 ft 430 kts 302°
2026-04-30 11:07 -27.93880 139.65958 36195 ft 430 kts 302°
2026-04-30 11:08 -27.90263 139.60577 36190 ft 429 kts 302°
2026-04-30 11:08 -27.86644 139.55207 36185 ft 429 kts 302°
2026-04-30 11:09 -27.83020 139.49823 36188 ft 429 kts 302°
2026-04-30 11:09 -27.79400 139.44459 36190 ft 428 kts 302°
2026-04-30 11:10 -27.75777 139.39100 36170 ft 428 kts 302°
2026-04-30 11:10 -27.72178 139.33780 36177 ft 428 kts 302°
2026-04-30 11:11 -27.68579 139.28458 36180 ft 427 kts 302°
2026-04-30 11:11 -27.64954 139.23114 36175 ft 427 kts 302°
2026-04-30 11:12 -27.61345 139.17811 36174 ft 427 kts 302°
2026-04-30 11:12 -27.57721 139.12477 36178 ft 427 kts 302°
2026-04-30 11:13 -27.54120 139.07174 36173 ft 427 kts 302°
2026-04-30 11:13 -27.50554 139.01937 36171 ft 426 kts 302°
2026-04-30 11:14 -27.46956 138.96667 36174 ft 426 kts 302°
2026-04-30 11:14 -27.43325 138.91349 36169 ft 426 kts 302°
2026-04-30 11:15 -27.39718 138.86072 36170 ft 426 kts 302°
2026-04-30 11:15 -27.36146 138.80857 36175 ft 425 kts 302°
2026-04-30 11:16 -27.32535 138.75585 36177 ft 425 kts 302°
2026-04-30 11:16 -27.28938 138.70344 36170 ft 425 kts 302°
2026-04-30 11:17 -27.25317 138.65079 36159 ft 424 kts 301°
2026-04-30 11:17 -27.21709 138.59836 36165 ft 424 kts 301°
2026-04-30 11:18 -27.18096 138.54590 36158 ft 424 kts 301°
2026-04-30 11:18 -27.12698 138.46770 36164 ft 424 kts 302°
2026-04-30 11:19 -27.09089 138.41555 36159 ft 423 kts 301°
2026-04-30 11:19 -27.05483 138.36325 36158 ft 423 kts 301°
2026-04-30 11:20 -27.01871 138.31109 36159 ft 423 kts 302°
2026-04-30 11:20 -26.98266 138.25914 36159 ft 423 kts 302°
2026-04-30 11:21 -26.94760 138.20864 36150 ft 423 kts 302°
2026-04-30 11:21 -26.91146 138.15650 36151 ft 423 kts 302°
2026-04-30 11:22 -26.87534 138.10448 36154 ft 424 kts 302°
2026-04-30 11:22 -26.83935 138.05289 36154 ft 424 kts 302°
2026-04-30 11:23 -26.80322 138.00122 36128 ft 424 kts 302°
2026-04-30 11:24 -26.74926 137.92389 36135 ft 425 kts 302°
2026-04-30 11:24 -26.71888 137.88042 36138 ft 426 kts 302°
2026-04-30 11:25 -26.66399 137.80207 36135 ft 427 kts 302°
2026-04-30 11:26 -26.59080 137.69782 36143 ft 428 kts 302°
2026-04-30 11:26 -26.55389 137.64525 36146 ft 428 kts 302°
2026-04-30 11:27 -26.51710 137.59299 36134 ft 428 kts 302°
2026-04-30 11:27 -26.48042 137.54090 36134 ft 429 kts 303°
2026-04-30 11:28 -26.42475 137.46217 36139 ft 430 kts 303°
2026-04-30 11:29 -26.38772 137.40981 36138 ft 431 kts 302°
2026-04-30 11:29 -26.33219 137.33128 36128 ft 431 kts 303°
2026-04-30 11:30 -26.27643 137.25263 36139 ft 431 kts 303°
2026-04-30 11:31 -26.23924 137.20017 36143 ft 431 kts 303°
2026-04-30 11:31 -26.20203 137.14780 36146 ft 431 kts 303°
2026-04-30 11:32 -26.16467 137.09544 36149 ft 431 kts 303°
2026-04-30 11:32 -26.12741 137.04315 36150 ft 431 kts 303°
2026-04-30 11:33 -26.07150 136.96456 36144 ft 431 kts 303°
2026-04-30 11:33 -26.03420 136.91240 36150 ft 431 kts 303°
2026-04-30 11:34 -25.99707 136.86057 36151 ft 431 kts 303°
2026-04-30 11:34 -25.95982 136.80848 36150 ft 431 kts 303°
2026-04-30 11:35 -25.92252 136.75630 36151 ft 431 kts 302°
2026-04-30 11:35 -25.88518 136.70438 36155 ft 430 kts 303°
2026-04-30 11:36 -25.84771 136.65241 36140 ft 430 kts 302°
2026-04-30 11:36 -25.81037 136.60053 36151 ft 430 kts 302°
2026-04-30 11:37 -25.77301 136.54860 36153 ft 430 kts 302°
2026-04-30 11:37 -25.73570 136.49679 36157 ft 430 kts 302°
2026-04-30 11:38 -25.69836 136.44502 36150 ft 430 kts 302°
2026-04-30 11:38 -25.66096 136.39333 36153 ft 429 kts 302°
2026-04-30 11:39 -25.62383 136.34207 36144 ft 429 kts 302°
2026-04-30 11:39 -25.58647 136.29054 36148 ft 429 kts 302°
2026-04-30 11:40 -25.54933 136.23932 36153 ft 429 kts 302°
2026-04-30 11:40 -25.51196 136.18784 36152 ft 429 kts 302°
2026-04-30 11:41 -25.47460 136.13641 36151 ft 428 kts 302°
2026-04-30 11:41 -25.43724 136.08509 36152 ft 428 kts 302°
2026-04-30 11:42 -25.39984 136.03379 36153 ft 428 kts 302°
2026-04-30 11:42 -25.36247 135.98254 36151 ft 428 kts 302°
2026-04-30 11:43 -25.32511 135.93128 36151 ft 428 kts 302°
2026-04-30 11:43 -25.28807 135.88050 35765 ft 428 kts 302°
2026-04-30 11:44 -25.26930 135.85486 35431 ft 428 kts 302°
2026-04-30 11:44 -25.25073 135.82952 35095 ft 429 kts 302°
2026-04-30 11:44 -25.23196 135.80390 34774 ft 429 kts 301°
2026-04-30 11:44 -25.21314 135.77818 34453 ft 430 kts 301°
2026-04-30 11:45 -25.19426 135.75241 34111 ft 431 kts 301°
2026-04-30 11:45 -25.17536 135.72668 33759 ft 432 kts 301°
2026-04-30 11:45 -25.15641 135.70085 33384 ft 434 kts 302°
2026-04-30 11:45 -25.13740 135.67494 33027 ft 435 kts 302°
2026-04-30 11:46 -25.11829 135.64894 32675 ft 437 kts 302°
2026-04-30 11:46 -25.09914 135.62291 32325 ft 438 kts 302°
2026-04-30 11:46 -25.08017 135.59710 31980 ft 440 kts 303°
2026-04-30 11:46 -25.06086 135.57083 31641 ft 441 kts 303°
2026-04-30 11:47 -25.04149 135.54453 31301 ft 442 kts 303°
2026-04-30 11:47 -25.02210 135.51818 30969 ft 443 kts 304°
2026-04-30 11:47 -25.00265 135.49178 30643 ft 444 kts 304°
2026-04-30 11:47 -24.98312 135.46526 30315 ft 446 kts 304°
2026-04-30 11:48 -24.96353 135.43870 29947 ft 447 kts 305°
2026-04-30 11:48 -24.94388 135.41205 29566 ft 449 kts 305°
2026-04-30 11:48 -24.92410 135.38524 29197 ft 451 kts 305°
2026-04-30 11:48 -24.90425 135.35839 28806 ft 453 kts 305°
2026-04-30 11:49 -24.88424 135.33142 28439 ft 454 kts 305°
2026-04-30 11:49 -24.86420 135.30444 28088 ft 456 kts 305°
2026-04-30 11:49 -24.84412 135.27736 27734 ft 457 kts 305°
2026-04-30 11:49 -24.82400 135.25022 27382 ft 458 kts 305°
2026-04-30 11:50 -24.80384 135.22300 27041 ft 459 kts 305°
2026-04-30 11:50 -24.78365 135.19572 26694 ft 460 kts 305°
2026-04-30 11:50 -24.76343 135.16842 26355 ft 461 kts 305°
2026-04-30 11:50 -24.74308 135.14098 26026 ft 463 kts 306°
2026-04-30 11:51 -24.72272 135.11356 25693 ft 464 kts 306°
2026-04-30 11:51 -24.70230 135.08611 25367 ft 465 kts 306°
2026-04-30 11:51 -24.68174 135.05853 25057 ft 466 kts 306°
2026-04-30 11:51 -24.66116 135.03097 24726 ft 467 kts 306°
2026-04-30 11:52 -24.64054 135.00329 24415 ft 468 kts 306°
2026-04-30 11:52 -24.61997 134.97565 24105 ft 467 kts 306°
2026-04-30 11:52 -24.59945 134.94807 23790 ft 465 kts 306°
2026-04-30 11:52 -24.57898 134.92061 23431 ft 463 kts 306°
2026-04-30 11:53 -24.55860 134.89333 23082 ft 461 kts 306°
2026-04-30 11:53 -24.53829 134.86617 22704 ft 459 kts 306°
2026-04-30 11:53 -24.51809 134.83912 22349 ft 457 kts 306°
2026-04-30 11:53 -24.49792 134.81212 21999 ft 455 kts 307°
2026-04-30 11:54 -24.47817 134.78567 21655 ft 453 kts 307°
2026-04-30 11:54 -24.45819 134.75898 21315 ft 451 kts 307°
2026-04-30 11:54 -24.43826 134.73238 20975 ft 450 kts 307°
2026-04-30 11:54 -24.41878 134.70633 20636 ft 448 kts 307°
2026-04-30 11:55 -24.39906 134.67994 20308 ft 446 kts 307°
2026-04-30 11:55 -24.37950 134.65381 19991 ft 444 kts 307°
2026-04-30 11:55 -24.35990 134.62771 19658 ft 442 kts 307°
2026-04-30 11:55 -24.34064 134.60212 19341 ft 441 kts 307°
2026-04-30 11:56 -24.32114 134.57626 19036 ft 440 kts 307°
2026-04-30 11:56 -24.30171 134.55046 18710 ft 438 kts 307°
2026-04-30 11:56 -24.28247 134.52490 18390 ft 437 kts 307°
2026-04-30 11:56 -24.26318 134.49928 18032 ft 435 kts 308°
2026-04-30 11:57 -24.24397 134.47376 17668 ft 433 kts 308°
2026-04-30 11:57 -24.22491 134.44842 17315 ft 430 kts 308°
2026-04-30 11:57 -24.20590 134.42316 16965 ft 428 kts 308°
2026-04-30 11:57 -24.18698 134.39802 16619 ft 426 kts 308°
2026-04-30 11:58 -24.16814 134.37305 16279 ft 424 kts 308°
2026-04-30 11:58 -24.14942 134.34823 15946 ft 422 kts 308°
2026-04-30 11:58 -24.13071 134.32346 15605 ft 420 kts 308°
2026-04-30 11:58 -24.11210 134.29888 15274 ft 418 kts 309°
2026-04-30 11:59 -24.09361 134.27448 14956 ft 416 kts 309°
2026-04-30 11:59 -24.07520 134.25017 14625 ft 414 kts 309°
2026-04-30 11:59 -24.05688 134.22596 14303 ft 412 kts 309°
2026-04-30 11:59 -24.03861 134.20182 14000 ft 410 kts 309°
2026-04-30 12:00 -24.02045 134.17783 13634 ft 409 kts 309°
2026-04-30 12:00 -24.00260 134.15423 13280 ft 406 kts 309°
2026-04-30 12:00 -23.98438 134.13017 12926 ft 404 kts 309°
2026-04-30 12:00 -23.96681 134.10697 12579 ft 402 kts 309°
2026-04-30 12:01 -23.94897 134.08343 12229 ft 401 kts 309°
2026-04-30 12:01 -23.93124 134.06003 11896 ft 399 kts 309°
2026-04-30 12:01 -23.91342 134.03657 11543 ft 390 kts 309°
2026-04-30 12:01 -23.89661 134.01449 11238 ft 375 kts 309°
2026-04-30 12:02 -23.88036 133.99314 11145 ft 355 kts 309°
2026-04-30 12:02 -23.86504 133.97301 11161 ft 332 kts 309°
2026-04-30 12:02 -23.85068 133.95417 11163 ft 314 kts 309°
2026-04-30 12:02 -23.83706 133.93632 11164 ft 298 kts 309°
2026-04-30 12:03 -23.82393 133.91908 11065 ft 294 kts 310°
2026-04-30 12:03 -23.79824 133.88537 10599 ft 290 kts 309°
2026-04-30 12:03 -23.78702 133.86786 10370 ft 290 kts 301°
2026-04-30 12:04 -23.77666 133.84895 10139 ft 290 kts 301°
2026-04-30 12:04 -23.76625 133.83006 9892 ft 290 kts 301°
2026-04-30 12:04 -23.75579 133.81115 9630 ft 291 kts 301°
2026-04-30 12:04 -23.74535 133.79232 9373 ft 290 kts 302°
2026-04-30 12:05 -23.73492 133.77352 9117 ft 289 kts 302°
2026-04-30 12:05 -23.72456 133.75484 8863 ft 287 kts 302°
2026-04-30 12:05 -23.71404 133.73631 8611 ft 286 kts 306°
2026-04-30 12:05 -23.70045 133.72069 8362 ft 284 kts 323°
2026-04-30 12:06 -23.68356 133.70996 8117 ft 281 kts 339°
2026-04-30 12:06 -23.66498 133.70405 7863 ft 275 kts 346°
2026-04-30 12:06 -23.64666 133.69887 7616 ft 271 kts 346°
2026-04-30 12:06 -23.62855 133.69359 7376 ft 268 kts 343°
2026-04-30 12:07 -23.61297 133.68316 7144 ft 265 kts 310°
2026-04-30 12:07 -23.60574 133.66513 6905 ft 263 kts 276°
2026-04-30 12:07 -23.60850 133.64578 6661 ft 260 kts 244°
2026-04-30 12:07 -23.61999 133.63099 6427 ft 258 kts 212°
2026-04-30 12:08 -23.63654 133.62498 6179 ft 256 kts 180°
2026-04-30 12:08 -23.65352 133.62918 5933 ft 254 kts 148°
2026-04-30 12:08 -23.66603 133.64228 5683 ft 250 kts 121°
2026-04-30 12:08 -23.67484 133.65850 5532 ft 244 kts 118°
2026-04-30 12:09 -23.68311 133.67411 5507 ft 231 kts 118°
2026-04-30 12:09 -23.69100 133.68880 5496 ft 219 kts 118°
2026-04-30 12:09 -23.69600 133.69806 5499 ft 208 kts 118°
2026-04-30 12:09 -23.70557 133.71584 5356 ft 200 kts 118°
2026-04-30 12:10 -23.71021 133.72445 5185 ft 197 kts 118°
2026-04-30 12:10 -23.71713 133.73730 4936 ft 193 kts 118°
2026-04-30 12:10 -23.72387 133.74981 4696 ft 189 kts 118°
2026-04-30 12:10 -23.73047 133.76208 4442 ft 186 kts 118°
2026-04-30 12:11 -23.73693 133.77407 4198 ft 181 kts 117°
2026-04-30 12:11 -23.74309 133.78550 3976 ft 168 kts 117°
2026-04-30 12:11 -23.74879 133.79609 3793 ft 157 kts 117°
2026-04-30 12:11 -23.75427 133.80629 3583 ft 155 kts 116°
2026-04-30 12:12 -23.75967 133.81635 3395 ft 153 kts 117°
2026-04-30 12:12 -23.76499 133.82625 3203 ft 150 kts 117°
2026-04-30 12:12 -23.77026 133.83605 3004 ft 148 kts 117°
2026-04-30 12:12 -23.77542 133.84565 2820 ft 146 kts 118°
2026-04-30 12:13 -23.78044 133.85500 2633 ft 144 kts 118°
2026-04-30 12:13 -23.78549 133.86439 2440 ft 143 kts 118°
2026-04-30 12:13 -23.79047 133.87369 2247 ft 141 kts 118°
2026-04-30 12:13 -23.79539 133.88292 2060 ft 140 kts 119°
2026-04-30 12:14 -23.80037 133.89206 1879 ft 141 kts 117°
2026-04-30 12:14 -23.80505 133.90100 1783 ft 119 kts 121°
2026-04-30 12:14 -23.80777 133.90593 1780 ft 33 kts 121°
2026-04-30 12:14 -23.80816 133.90664 1779 ft 14 kts 120°
2026-04-30 12:15 -23.80900 133.90823 1780 ft 33 kts 120°
2026-04-30 12:15 -23.81033 133.91066 1780 ft 38 kts 121°
2026-04-30 12:15 -23.81150 133.91290 1782 ft 29 kts 110°
2026-04-30 12:15 -23.81202 133.91386 1780 ft 8 kts 206°
2026-04-30 12:16 -23.81188 133.91336 1781 ft 13 kts 311°
2026-04-30 12:16 -23.81112 133.91210 1781 ft 26 kts 300°
2026-04-30 12:16 -23.81012 133.91026 1780 ft 30 kts 301°
2026-04-30 12:16 -23.80904 133.90827 1781 ft 32 kts 300°
2026-04-30 12:17 -23.80664 133.90385 1781 ft 28 kts 300°
2026-04-30 12:17 -23.80553 133.90345 1782 ft 17 kts 28°
2026-04-30 12:17 -23.80462 133.90360 1782 ft 14 kts 312°
2026-04-30 12:18 -23.80408 133.90264 1782 ft 16 kts 300°
2026-04-30 12:18 -23.80350 133.90153 1783 ft 18 kts 300°
2026-04-30 12:18 -23.80302 133.90067 1783 ft 10 kts 301°
2026-04-30 12:18 -23.80265 133.89996 1783 ft 8 kts 307°
2026-04-30 12:19 -23.80213 133.89963 1783 ft 9 kts 308°
2026-04-30 12:19 -23.80204 133.89944 1783 ft 0 kts 296°